Location: Beaver Brook Station
(42.3793°N, 71.2203°W)
Time: 06:58:51
(UTC+00:00)

NOAA 11 - Pass Details

Date: 29 October 2020
Orbit: 833 x 850 km, 98.4° (Epoch: 23 November)

Event Time Altitude Azimuth Distance (km) Brightness Sun altitude
Rises 22:22:42 0° 159° (SSE) 3,381 7.2 -8.2°
Reaches altitude 10° 22:25:03 10° 157° (SSE) 2,448 6.5 -8.6°
Maximum altitude 22:30:27 72° 74° (ENE) 880 4.1 -9.6°
Drops below altitude 10° 22:35:53 10° 351° (N) 2,455 6.6 -10.6°
Sets 22:38:15 0° 349° (N) 3,392 7.4 -11.0°
